Location: Antichan
(42.9728°N, 0.6667°E)
Time: 16:05:04
(UTC+00:00)

Cosmos 1515 - Pass Details

Date: 15 August 2020
Orbit: 505 x 517 km, 82.5° (Epoch: 18 September)

Event Time Altitude Azimuth Distance (km) Brightness Sun altitude
Rises 20:53:29 0° 354° (N) 2,640 8.0 -18.8°
Reaches altitude 10° 20:55:39 10° 358° (N) 1,747 7.0 -19.1°
Maximum altitude 20:59:27 64° 81° (E) 569 3.6 -19.7°
Enters shadow 20:59:49 60° 114° (ESE) 590 3.6 -19.7°
